Regional Weather Roundup
Issued by NWS

Home | Current Version | Previous Version | Text Only | Print | Product List | Glossary On
Versions: 1 2 3 4 5 6 7 8 9 10 11 12 13 14 15 16 17 18 19 20 21 22 23 24 25 26 27 28 29 30 31 32 33 34 35 36 37 38 39 40 41 42 43 44 45 46 47 48 49 50
769
ASUS43 KOAX 291002
RWRNE

WEATHER ROUNDUP FOR NEBRASKA
NATIONAL WEATHER SERVICE OMAHA NE
500 AM CDT FRI JUL 29 2016

NOTES: SATELLITE DATA IS BEING USED TO AUGMENT CLOUD COVER ABOVE
       12000 FEET.
       "FAIR" INDICATES FEW OR NO CLOUDS BELOW 12,000 FEET WITH NO
       SIGNIFICANT WEATHER AND/OR OBSTRUCTIONS TO VISIBILITY.

  * THESE STATIONS DO NOT REPORT WEATHER SUCH AS RAIN...SNOW OR FOG.

NEZ001>004-019>022-054>056-291100-
NEBRASKA PANHANDLE

CITY           SKY/WX    TMP DP  RH WIND       PRES   REMARKS
SCOTTSBLUFF    CLEAR     60  57  89 NE6       30.16S
ALLIANCE       FOG       52  52 100 W6        30.16F VSB 1/4
CHADRON        CLEAR     57  55  93 CALM      30.14F
KIMBALL        CLOUDY    58  58 100 W5        30.20S
SIDNEY         CLOUDY    59  57  93 W5        30.19R
$$

NEZ057>060-069>072-079>082-291100-
SOUTHWEST NEBRASKA

CITY           SKY/WX    TMP DP  RH WIND       PRES   REMARKS
NORTH PLATTE   PTCLDY    57  56  96 CALM      30.09F FOG
IMPERIAL       CLEAR     62  60  93 W5        30.12F
LEXINGTON      CLEAR     60  58  94 W3        30.08S
MCCOOK         CLEAR     59  58  96 CALM      30.08F
OGALLALA       CLEAR     60  57  92 SW5       30.12S
$$

NEZ005>010-023>029-035>040-094-291100-
NORTH CENTRAL NEBRASKA

CITY           SKY/WX    TMP DP  RH WIND       PRES   REMARKS
AINSWORTH      HVY RAIN  61  61 100 NW7       30.12S
BROKEN BOW     CLEAR     59  59 100 N6        30.08F
O`NEILL        CLOUDY    65  64  94 NE8       30.08F
ORD            CLEAR     62  60  93 NW3       30.05F
THEDFORD       FOG       58  57  99 W5        30.11F VSB 1/2
$$

NEZ041-046>049-061>064-073>077-083>087-291100-
SOUTH CENTRAL NEBRASKA

CITY           SKY/WX    TMP DP  RH WIND       PRES   REMARKS
GRAND ISLAND   CLOUDY    67  64  90 N3        30.04F
AURORA         CLOUDY    65  65  99 N3        30.03F
HASTINGS       MOCLDY    65  63  93 N3        30.04F
HEBRON         MOCLDY    64  62  92 CALM      30.00F
HOLDREGE       PTCLDY    61  60  96 CALM      30.07R
KEARNEY *      CLEAR     63   7  11 NW7       30.05F
YORK           CLOUDY    66  64  94 CALM      30.02F
$$

NEZ011>018-030>034-042>045-291100-
NORTHEAST NEBRASKA

CITY           SKY/WX    TMP DP  RH WIND       PRES   REMARKS
NORFOLK        CLOUDY    66  62  87 N6        30.04S
ALBION         CLOUDY    64  62  92 NW5       30.05S
BLAIR          CLOUDY    67  65  90 N6        30.00F
FREMONT        CLOUDY    68  64  86 CALM      30.01S
TEKAMAH        CLOUDY    65  63  93 N6        30.01S
WAYNE          CLOUDY    62  61  97 CALM      30.05S
$$

NEZ050>053-065>068-078-088>093-291100-
SOUTHEAST NEBRASKA

CITY           SKY/WX    TMP DP  RH WIND       PRES   REMARKS
LINCOLN        CLOUDY    69  65  86 N3        30.01S
OMAHA EPPLEY   CLOUDY    68  64  87 N6        30.00S
BEATRICE       CLEAR     63  61  95 N6        29.99F
FALLS CITY     MOCLDY    69  66  90 N6        29.96F
NEBRASKA CITY  CLEAR     65  65 100 N3        29.99S
PLATTSMOUTH    CLOUDY    68  65  90 CALM      30.00S
$$

NEZ044-045-051>053-067-291100-
OMAHA AREA

CITY           SKY/WX    TMP DP  RH WIND       PRES   REMARKS
OMAHA EPPLEY   CLOUDY    68  64  87 N6        30.00S
BLAIR          CLOUDY    67  65  90 N6        30.00F
FREMONT        CLOUDY    68  64  86 CALM      30.01S
MILLARD        CLOUDY    71  64  79 CALM      29.99F
PLATTSMOUTH    CLOUDY    68  65  90 CALM      30.00S
WAHOO          CLOUDY    68  66  93 N3        30.00S
$$




USA.gov is the U.S. government's official web portal to all federal, state and local government web resources and services.